World > North America > United States > Ohio > Englewood  

Englewood, OH Hourly Weather Updates

Feedback E-mail the Weather

Quick Clicks

Englewood, OH Weather Maps

°F °C°F °C
Englewood Weather Map
UTC Time: 4/21/2024, 08:27
Your Time:

Englewood, OH Regional Weather

Expires:202404210900;;117480
ASUS41 KCLE 210812
RWRCLE
OHIO REGIONAL WEATHER ROUNDUP
NATIONAL WEATHER SERVICE WILMINGTON, OH
400 AM EDT SUN APR 21 2024

NOTE: "FAIR" INDICATES FEW OR NO CLOUDS BELOW 12,000 FEET WITH NO
SIGNIFICANT WEATHER AND/OR OBSTRUCTIONS TO VISIBILITY.


OHZ042-051>053-060>062-070>072-077>081-210900-
  SOUTHWEST OHIO
  
CITY           SKY/WX    TMP DP  RH WIND       PRES   REMARKS
CINC-COVINGTON FAIR      39  30  70 NW10      30.14F                  
CINC-LUNKEN    FAIR      42  28  57 NW6       30.16F                  
HAMILTON       CLOUDY    38  33  82 CALM      30.16F                  
DAYTON         CLOUDY    42  26  53 NW7       30.13S                  
WRIGHT-PAT AFB CLOUDY    43  25  49 NW10      30.12S                  
DAYTON GENERAL MOCLDY    39  28  64 NW5       30.12S                  
WILMINGTON     FAIR      39  28  64 W3        30.11F                  
$$


SKY/WX - Weather  TMP - Temperature  DP - Dew Point  RH - Humidity
WIND - Wind Direction/Speed PRES - Barometric Pressure VSB - Visibility
WCI - Wind Chill Index E13G22 Wind - East Wind 13 mph/Gusts of 22 mph

Trending Headlines

Trending Entertainment Headlines

Englewood Radar Loop

Use the map search tool if you want to place a location marker on the radar map...

Englewood Quick Facts

National Two Day Weather Forecast


E-mail the Englewood Weather Forecast

Voice your opinion or tell us about page issues...